SCP
0 0 0 0 0 0 0 0 0 0 0 0 0 0 0 0 0 0 0 0 0 0 0 0 0 0 0 0 0 0 0 -0 0 0 0 0 0 -0 -0 -0 -0 0 0 0
0 0 0 0 0 0 0 0 0 0 0 0 0 0 0 0 0 0 0 0 0 0 0 0 0 0 0 0 0 0 0 -0 -0 -0 -0 -0 -0 -0 -0 -0 -0 -0 -0 -0
0 0 0 0 0 0 0 0 0 0 0 0 0 0 0 0 0 0 0 0 0 0 0 0 0 0 0 0 0 0 -0 -0 -0 -0 -0 -0 -0 -0 -0 -0 -0 -0 -0 -0
0 0 0 0 0 0 0 0 0 0 0 0 0 0 0 0 0 0 0 0 0 0 0 0 0 0 0 0 0 0 0 -0 -0 -0 -0 -0 -0 -0 -0 -0 -0 -0 -0 -0
0 0 0 0 0 0 0 0 0 0 0 0 0 0 0 0 0 0 0 0 0 0 0 0 0 0 0 0 0 0 -0 -0 -0 -0 -0 -0 -0 -0 -0 -0 -0 -0 -0 -0
0 0 0 0 0 0 0 0 0 0 0 0 0 0 0 0 0 0 0 0 0 0 0 0 0 0 0 0 0 0 -0 -0 -0 -0 -0 -0 -0 -0 -0 -0 -0 -0 0 0
0 0 0 0 0 0 0 0 0 0 0 0 0 0 0 0 0 0 0 0 0 0 0 0 0 0 0 -0 -0 -0 -0 -0 -0 -0 -0 -0 -0 -0 -0 -0 -0 -0 -0 0
0 0 0 0 0 0 0 0 0 0 0 0 0 0 0 0 0 0 0 0 0 0 0 0 0 0 0 -0 -0 -0 -0 -0 -0 -0 -0 -0 -0 -0 -0 -0 -0 -0 -0 -0
0 0 0 0 0 0 0 0 0 0 0 0 0 0 0 0 0 0 0 0 0 0 0 0 0 0 0 0 0 0 -0 0 0 0 -0 -0 -0 -0 -0 -0 0 0 -0 -0
0 0 0 0 0 0 0 0 0 0 0 0 0 0 0 0 0 0 0 0 0 0 0 0 0 0 0 0 0 0 0 0 0 0 0 0 -0 -0 0 0 0 0 0 0
0 0 0 0 0 0 0 0 0 0 0 0 0 0 0 0 0 0 0 0 0 0 0 0 0 0 0 0 0 0 0 0 0 0 0 0 -0 -0 -0 -0 -0 -0 -0 -0
0 0 0 0 0 0 0 0 0 0 0 0 0 0 0 0 0 0 0 0 0 0 0 0 0 0 0 0 0 0 0 0 0 0 0 0 0 0 -0 0 0 0 0 -0
0 0 0 0 0 0 0 0 0 0 0 0 0 0 0 0 0 0 0 0 0 0 0 0 0 0 0 0 0 0 0 0 0 0 0 0 0 0 0 0 0 0 0 0
0 0 0 0 0 0 0 0 0 0 0 0 0 0 0 0 0 0 0 0 0 0 0 0 0 0 0 0 0 0 0 0 0 0 0 0 0 0 0 -0 -0 -0 -0 -0
0 0 0 0 0 0 0 0 0 0 0 0 0 0 0 0 0 0 0 0 0 0 0 0 0 0 0 0 0 0 0 0 0 0 0 0 0 0 -0 -0 -0 -0 -0 -0
0 0 0 0 0 0 0 0 0 0 0 0 0 0 0 0 0 0 0 0 0 0 0 0 0 0 0 0 0 0 0 0 0 0 0 0 0 0 -0 -0 -0 -0 -0 -0
0 0 0 0 0 0 0 0 0 0 0 0 0 0 0 0 0 0 0 0 0 0 0 0 0 0 0 0 0 0 0 0 0 0 0 0 0 -0 -0 -0 -0 -0 -0 -0
0 0 0 0 0 0 0 0 0 0 0 0 0 0 0 0 0 0 0 0 0 0 0 0 0 0 0 0 0 0 0 0 0 0 0 0 0 -0 -0 -0 0 0 0 0
0 0 0 0 0 0 0 0 0 0 0 0 0 0 0 0 0 0 0 0 0 0 0 0 0 0 0 0 0 0 0 0 0 0 0 0 0 0 0 0 0 0 0 0
0 0 0 0 0 0 0 0 0 0 0 0 0 0 0 0 0 0 0 0 0 0 0 0 0 0 0 0 0 0 0 0 0 0 0 0 0 0 0 0 0 0 0 0
0 0 0 0 0 0 0 0 0 0 0 0 0 0 0 0 0 0 0 0 0 0 0 0 0 0 0 0 0 0 0 0 0 0 0 0 0 0 0 0 0 0 0 0
0 0 0 0 0 0 0 0 0 0 0 0 0 0 0 0 0 0 0 0 0 0 0 0 0 0 0 0 0 0 0 0 0 0 0 0 0 0 0 0 0 0 0 0
0 0 0 0 0 0 0 0 0 0 0 0 0 0 0 0 0 0 0 0 0 0 0 0 0 0 0 0 0 0 0 0 0 0 0 0 0 0 0 0 0 0 0 0
0 0 0 0 0 0 0 0 0 0 0 0 0 0 0 0 0 0 0 0 0 0 0 0 0 0 0 0 0 0 0 0 0 0 0 0 0 0 0 0 0 0 0 0
0 0 0 0 0 0 0 0 0 0 0 0 0 0 0 0 0 0 0 0 0 0 0 0 0 0 0 0 0 0 0 0 0 0 0 0 0 0 0 0 0 0 0 0
0 0 0 0 0 0 0 0 0 0 0 0 0 0 0 0 0 0 0 0 0 0 0 0 0 0 0 0 0 0 0 0 0 0 0 0 0 0 0 0 0 0 0 0
0 0 0 0 0 0 0 0 0 0 0 0 0 0 0 0 0 0 0 0 0 0 0 0 0 0 0 0 0 0 0 0 0 0 0 0 0 0 0 0 0 0 0 0
Wind_Speed_500mb
1 5 7 11 19 34 33 50 22 21 25 28 30 25 30 32 25 17 10 3 1 5 11 19 26 33 44 50 50 52 53 52 54 57 57 59 62 65 67 67 67 66 67 66
10 12 9 8 13 36 47 37 40 20 25 10 41 41 27 26 29 26 19 10 6 9 17 17 22 31 37 44 50 54 54 57 62 68 73 76 77 76 74 73 75 77 78 77
19 8 9 12 50 27 27 14 36 31 29 15 16 25 27 33 35 31 21 13 4 8 19 29 33 37 40 43 48 50 56 63 65 71 76 81 85 87 90 91 91 89 85 85
6 10 17 17 4 28 42 34 34 9 4 10 31 36 34 28 34 29 20 9 2 9 20 26 32 34 39 43 48 54 60 66 70 73 79 82 86 89 91 92 94 98 99 98
10 20 12 9 10 14 19 26 20 25 14 33 53 46 15 27 28 24 14 6 7 12 21 26 31 34 38 43 48 56 63 69 73 77 80 85 89 92 94 96 96 95 95 96
5 12 23 14 11 16 13 23 22 35 32 43 44 16 10 33 23 16 10 7 9 14 19 24 29 35 37 44 52 55 63 69 73 77 80 83 87 89 88 89 91 92 93 91
11 10 16 10 13 19 17 11 31 36 47 52 14 5 47 37 23 14 9 9 11 15 20 26 29 33 38 42 49 56 61 64 67 69 73 77 80 83 87 88 89 89 90 89
8 11 28 17 10 22 6 16 39 45 49 40 36 43 40 28 19 13 8 6 8 12 15 20 28 32 35 41 48 53 56 59 62 67 71 73 74 77 82 87 91 93 97 101
20 15 3 8 4 12 22 40 42 50 43 54 50 39 32 26 18 12 6 2 3 7 13 19 24 29 32 37 42 46 50 55 58 59 60 64 71 78 83 86 90 95 96 96
8 8 6 12 16 25 26 43 48 48 51 47 45 36 29 22 17 13 9 5 4 8 12 16 20 25 31 35 38 41 44 48 53 57 60 62 66 71 75 80 84 86 88 92
3 3 5 16 25 37 42 47 48 43 39 36 33 30 24 21 17 14 11 8 8 10 13 16 20 25 30 35 37 38 41 44 47 51 55 60 60 61 63 63 65 68 72 78
11 27 8 14 54 48 52 52 46 43 38 32 29 26 24 22 18 16 12 9 8 8 11 14 17 20 24 29 34 38 41 44 46 50 53 56 60 63 55 56 60 62 62 64
6 32 9 36 56 52 55 50 42 36 30 29 26 23 23 21 19 17 13 8 5 5 9 12 16 20 24 29 32 36 39 42 45 47 50 55 60 66 76 68 60 61 64 68
37 39 33 53 32 54 48 44 39 36 32 28 26 25 23 21 19 16 11 6 3 4 9 15 19 22 24 26 29 32 36 39 42 45 49 52 56 61 65 71 80 80 72 72
29 10 18 44 49 51 44 41 40 35 31 30 29 28 27 24 20 16 12 6 4 7 14 18 19 20 22 25 28 31 34 37 41 44 47 51 55 58 61 65 69 74 80 79
22 22 37 48 58 51 45 43 38 35 33 32 32 31 28 26 22 17 12 8 9 11 13 15 20 23 27 29 29 29 32 36 41 46 50 52 53 56 60 64 67 71 74 80
36 28 37 46 49 48 44 36 31 31 34 35 33 31 28 23 16 11 9 11 13 15 17 19 23 26 27 29 33 35 36 39 43 44 48 51 54 56 59 62 64 66 67 69
13 9 26 29 41 43 43 40 38 37 36 35 32 26 21 15 10 11 14 15 16 16 18 22 23 23 26 29 32 34 37 40 44 47 47 49 52 54 57 59 62 65 67 66
16 11 26 28 32 33 37 40 39 38 38 33 28 23 18 14 14 15 15 14 13 14 19 22 23 24 27 30 32 35 37 40 43 46 49 52 53 56 59 61 62 63 66 69
17 19 23 29 34 35 38 39 39 36 32 26 21 15 12 12 13 14 16 16 16 18 20 22 23 25 27 30 33 35 38 42 45 47 50 53 56 59 60 61 63 64 65 67
19 22 26 30 34 36 37 33 31 28 24 19 15 13 14 16 17 19 21 21 21 22 23 23 25 26 28 32 34 36 40 43 46 50 53 56 58 59 60 61 62 65 66 67
25 27 29 30 32 32 33 31 28 24 20 17 15 16 17 19 21 22 23 24 24 27 27 27 28 30 31 34 36 38 42 45 48 51 54 57 61 64 65 66 68 69 69 70
26 28 30 31 31 31 30 27 25 23 20 19 18 19 20 22 24 24 24 26 27 29 30 30 31 32 34 36 39 41 43 45 47 50 53 56 59 62 65 67 68 70 72 72
32 32 33 35 35 35 33 26 23 22 22 22 22 24 24 24 26 25 25 25 28 29 31 31 32 34 36 39 41 43 45 47 49 51 54 57 58 61 63 66 69 70 71 72
30 33 36 37 37 32 25 26 28 28 27 27 26 25 26 27 28 29 28 29 31 31 31 33 34 36 38 40 43 45 47 48 50 52 54 57 59 62 66 68 71 72 73 72
35 36 35 33 29 26 28 32 32 29 32 29 28 29 30 31 30 30 31 31 31 33 33 33 34 36 38 41 44 46 47 48 50 52 56 58 61 63 67 69 71 72 72 72
37 40 40 41 39 34 35 36 36 33 31 32 33 34 34 35 33 32 32 33 34 33 34 35 37 38 40 42 43 45 46 48 50 52 54 57 59 63 66 68 69 70 70 71
Wind_Direction_500mb
219 159 175 188 189 199 208 228 222 237 217 199 179 164 162 155 133 117 113 141 197 302 332 360 5 2 360 357 357 355 349 346 345 343 339 336 334 332 329 328 326 323 320 317
239 215 187 234 221 206 213 223 232 246 256 166 172 178 171 145 133 125 121 126 84 13 354 356 3 353 351 345 344 346 345 342 340 339 337 334 332 331 329 326 324 322 320 319
236 167 115 263 237 201 217 207 216 229 237 154 158 165 157 146 149 149 157 154 115 356 347 342 354 348 344 342 342 342 341 341 339 336 334 331 329 328 327 325 323 320 319 317
178 140 217 250 125 210 211 214 200 214 155 180 148 123 132 158 159 154 158 152 333 329 335 337 339 339 340 342 345 347 344 343 341 338 335 332 330 328 326 324 322 320 317 316
189 210 307 268 212 166 176 236 210 199 137 135 129 125 112 153 157 152 157 192 279 318 328 324 333 341 348 349 349 348 347 346 345 345 341 339 335 334 332 328 324 321 318 316
149 187 224 260 177 163 104 261 172 170 171 156 155 174 169 174 168 171 194 235 283 309 318 330 345 354 353 355 354 352 355 354 352 349 347 345 344 341 338 335 331 328 322 318
176 223 276 201 160 150 160 243 169 169 162 166 170 167 160 168 173 190 213 265 303 327 342 351 356 3 5 1 2 4 2 358 356 353 352 352 349 346 343 340 337 336 333 331
131 213 256 151 116 179 151 114 159 162 164 163 150 141 152 163 178 195 228 280 330 347 356 5 12 14 12 10 10 8 4 0 359 358 357 353 352 354 357 357 354 351 346 342
196 212 51 178 33 150 161 152 159 156 162 171 161 159 164 169 180 194 206 241 350 26 31 27 23 19 17 15 11 8 2 0 360 0 359 359 1 4 6 5 1 356 349 340
122 176 172 190 183 172 172 164 161 158 153 160 161 164 166 173 177 181 175 154 93 67 53 40 31 22 17 14 8 1 359 358 357 354 355 358 3 5 6 6 3 355 349 342
54 78 61 228 200 170 159 162 160 158 161 161 165 165 172 174 172 168 155 129 93 66 50 37 28 16 8 3 357 352 352 351 349 349 352 354 357 2 3 9 7 355 348 340
221 184 145 186 186 172 166 166 167 169 163 167 174 174 176 174 169 161 150 127 102 66 42 27 16 5 356 349 344 342 343 344 347 351 353 354 352 350 1 3 3 359 355 347
146 156 159 157 169 172 174 170 170 174 176 174 173 179 180 176 167 158 146 132 115 58 27 8 355 349 344 341 341 344 342 346 352 352 354 353 352 351 348 354 2 358 353 351
137 134 113 161 172 176 176 171 175 179 180 179 180 179 179 175 165 156 150 145 98 12 347 338 337 334 340 342 349 344 344 348 351 353 353 354 355 354 352 353 353 355 356 355
165 182 188 177 169 170 176 175 173 176 177 176 174 175 174 171 165 166 173 193 277 317 326 327 326 329 337 343 345 343 342 347 350 351 353 352 352 352 352 353 355 353 352 353
146 139 155 170 169 173 177 177 182 178 178 180 179 176 175 174 176 182 195 225 267 289 299 311 321 330 337 341 343 342 346 349 350 351 350 350 351 352 352 353 354 354 354 352
134 134 156 165 174 179 184 183 183 183 179 178 178 179 178 180 187 207 244 273 283 296 311 318 323 328 332 338 338 342 348 349 350 349 347 348 348 349 352 351 351 352 353 352
163 174 189 190 183 182 181 181 181 181 180 179 180 183 187 196 220 253 268 276 282 292 305 311 314 322 329 334 334 340 344 346 346 346 346 347 347 348 349 350 349 348 349 349
202 197 188 188 188 187 183 182 180 181 182 183 185 191 200 213 231 244 253 258 265 280 293 303 313 322 326 330 333 336 341 344 343 342 344 345 344 347 347 346 346 346 345 345
215 198 191 186 185 187 185 182 183 183 185 190 199 211 230 250 269 281 283 282 287 291 298 309 315 320 322 326 329 333 338 339 339 341 342 342 343 344 343 342 342 342 342 342
209 203 196 193 191 187 185 188 191 193 197 206 218 239 261 277 282 283 286 291 296 303 307 309 313 317 323 325 327 332 334 336 337 339 341 341 341 341 341 340 340 339 339 339
215 207 203 200 195 195 197 199 202 208 217 227 244 262 270 275 281 284 284 289 292 301 306 312 315 319 322 323 326 329 331 332 335 337 337 338 338 338 339 339 339 339 338 337
214 211 209 208 207 208 212 213 216 222 230 243 257 269 277 278 279 280 280 286 293 302 307 309 312 315 318 321 323 326 328 330 332 334 335 335 335 335 335 335 336 335 335 335
213 213 212 211 214 216 219 224 233 239 247 258 267 274 279 280 278 281 284 283 293 299 301 303 308 313 317 319 321 323 325 328 331 333 333 333 333 333 333 334 334 333 332 332
224 220 219 220 223 225 224 232 237 241 249 258 268 278 285 286 283 284 286 291 295 299 301 305 309 312 315 317 319 321 323 327 329 329 329 331 332 333 333 333 332 331 331 331
228 229 230 232 231 229 235 241 245 246 252 262 273 283 286 285 279 277 281 288 293 296 299 301 306 310 313 316 318 318 321 325 327 329 329 331 331 331 331 331 330 330 330 329
226 226 227 228 229 236 245 250 250 253 260 264 271 277 283 284 279 280 286 289 291 294 299 303 307 311 312 313 314 317 321 324 326 326 327 328 329 329 330 330 330 330 330 330
Wind_Speed_850mb
1 5 7 11 19 34 33 50 22 21 25 28 30 25 30 32 25 17 10 3 1 5 11 19 26 33 44 50 50 52 53 52 54 57 57 59 62 65 67 67 67 66 67 66
10 12 9 8 13 36 47 37 40 20 25 10 41 41 27 26 29 26 19 10 6 9 17 17 22 31 37 44 50 54 54 57 62 68 73 76 77 76 74 73 75 77 78 77
19 8 9 12 50 27 27 14 36 31 29 15 16 25 27 33 35 31 21 13 4 8 19 29 33 37 40 43 48 50 56 63 65 71 76 81 85 87 90 91 91 89 85 85
6 10 17 17 4 28 42 34 34 9 4 10 31 36 34 28 34 29 20 9 2 9 20 26 32 34 39 43 48 54 60 66 70 73 79 82 86 89 91 92 94 98 99 98
10 20 12 9 10 14 19 26 20 25 14 33 53 46 15 27 28 24 14 6 7 12 21 26 31 34 38 43 48 56 63 69 73 77 80 85 89 92 94 96 96 95 95 96
5 12 23 14 11 16 13 23 22 35 32 43 44 16 10 33 23 16 10 7 9 14 19 24 29 35 37 44 52 55 63 69 73 77 80 83 87 89 88 89 91 92 93 91
11 10 16 10 13 19 17 11 31 36 47 52 14 5 47 37 23 14 9 9 11 15 20 26 29 33 38 42 49 56 61 64 67 69 73 77 80 83 87 88 89 89 90 89
8 11 28 17 10 22 6 16 39 45 49 40 36 43 40 28 19 13 8 6 8 12 15 20 28 32 35 41 48 53 56 59 62 67 71 73 74 77 82 87 91 93 97 101
20 15 3 8 4 12 22 40 42 50 43 54 50 39 32 26 18 12 6 2 3 7 13 19 24 29 32 37 42 46 50 55 58 59 60 64 71 78 83 86 90 95 96 96
8 8 6 12 16 25 26 43 48 48 51 47 45 36 29 22 17 13 9 5 4 8 12 16 20 25 31 35 38 41 44 48 53 57 60 62 66 71 75 80 84 86 88 92
3 3 5 16 25 37 42 47 48 43 39 36 33 30 24 21 17 14 11 8 8 10 13 16 20 25 30 35 37 38 41 44 47 51 55 60 60 61 63 63 65 68 72 78
11 27 8 14 54 48 52 52 46 43 38 32 29 26 24 22 18 16 12 9 8 8 11 14 17 20 24 29 34 38 41 44 46 50 53 56 60 63 55 56 60 62 62 64
6 32 9 36 56 52 55 50 42 36 30 29 26 23 23 21 19 17 13 8 5 5 9 12 16 20 24 29 32 36 39 42 45 47 50 55 60 66 76 68 60 61 64 68
37 39 33 53 32 54 48 44 39 36 32 28 26 25 23 21 19 16 11 6 3 4 9 15 19 22 24 26 29 32 36 39 42 45 49 52 56 61 65 71 80 80 72 72
29 10 18 44 49 51 44 41 40 35 31 30 29 28 27 24 20 16 12 6 4 7 14 18 19 20 22 25 28 31 34 37 41 44 47 51 55 58 61 65 69 74 80 79
22 22 37 48 58 51 45 43 38 35 33 32 32 31 28 26 22 17 12 8 9 11 13 15 20 23 27 29 29 29 32 36 41 46 50 52 53 56 60 64 67 71 74 80
36 28 37 46 49 48 44 36 31 31 34 35 33 31 28 23 16 11 9 11 13 15 17 19 23 26 27 29 33 35 36 39 43 44 48 51 54 56 59 62 64 66 67 69
13 9 26 29 41 43 43 40 38 37 36 35 32 26 21 15 10 11 14 15 16 16 18 22 23 23 26 29 32 34 37 40 44 47 47 49 52 54 57 59 62 65 67 66
16 11 26 28 32 33 37 40 39 38 38 33 28 23 18 14 14 15 15 14 13 14 19 22 23 24 27 30 32 35 37 40 43 46 49 52 53 56 59 61 62 63 66 69
17 19 23 29 34 35 38 39 39 36 32 26 21 15 12 12 13 14 16 16 16 18 20 22 23 25 27 30 33 35 38 42 45 47 50 53 56 59 60 61 63 64 65 67
19 22 26 30 34 36 37 33 31 28 24 19 15 13 14 16 17 19 21 21 21 22 23 23 25 26 28 32 34 36 40 43 46 50 53 56 58 59 60 61 62 65 66 67
25 27 29 30 32 32 33 31 28 24 20 17 15 16 17 19 21 22 23 24 24 27 27 27 28 30 31 34 36 38 42 45 48 51 54 57 61 64 65 66 68 69 69 70
26 28 30 31 31 31 30 27 25 23 20 19 18 19 20 22 24 24 24 26 27 29 30 30 31 32 34 36 39 41 43 45 47 50 53 56 59 62 65 67 68 70 72 72
32 32 33 35 35 35 33 26 23 22 22 22 22 24 24 24 26 25 25 25 28 29 31 31 32 34 36 39 41 43 45 47 49 51 54 57 58 61 63 66 69 70 71 72
30 33 36 37 37 32 25 26 28 28 27 27 26 25 26 27 28 29 28 29 31 31 31 33 34 36 38 40 43 45 47 48 50 52 54 57 59 62 66 68 71 72 73 72
35 36 35 33 29 26 28 32 32 29 32 29 28 29 30 31 30 30 31 31 31 33 33 33 34 36 38 41 44 46 47 48 50 52 56 58 61 63 67 69 71 72 72 72
37 40 40 41 39 34 35 36 36 33 31 32 33 34 34 35 33 32 32 33 34 33 34 35 37 38 40 42 43 45 46 48 50 52 54 57 59 63 66 68 69 70 70 71
Wind_Direction_850mb
219 159 175 188 189 199 208 228 222 237 217 199 179 164 162 155 133 117 113 141 197 302 332 360 5 2 360 357 357 355 349 346 345 343 339 336 334 332 329 328 326 323 320 317
239 215 187 234 221 206 213 223 232 246 256 166 172 178 171 145 133 125 121 126 84 13 354 356 3 353 351 345 344 346 345 342 340 339 337 334 332 331 329 326 324 322 320 319
236 167 115 263 237 201 217 207 216 229 237 154 158 165 157 146 149 149 157 154 115 356 347 342 354 348 344 342 342 342 341 341 339 336 334 331 329 328 327 325 323 320 319 317
178 140 217 250 125 210 211 214 200 214 155 180 148 123 132 158 159 154 158 152 333 329 335 337 339 339 340 342 345 347 344 343 341 338 335 332 330 328 326 324 322 320 317 316
189 210 307 268 212 166 176 236 210 199 137 135 129 125 112 153 157 152 157 192 279 318 328 324 333 341 348 349 349 348 347 346 345 345 341 339 335 334 332 328 324 321 318 316
149 187 224 260 177 163 104 261 172 170 171 156 155 174 169 174 168 171 194 235 283 309 318 330 345 354 353 355 354 352 355 354 352 349 347 345 344 341 338 335 331 328 322 318
176 223 276 201 160 150 160 243 169 169 162 166 170 167 160 168 173 190 213 265 303 327 342 351 356 3 5 1 2 4 2 358 356 353 352 352 349 346 343 340 337 336 333 331
131 213 256 151 116 179 151 114 159 162 164 163 150 141 152 163 178 195 228 280 330 347 356 5 12 14 12 10 10 8 4 0 359 358 357 353 352 354 357 357 354 351 346 342
196 212 51 178 33 150 161 152 159 156 162 171 161 159 164 169 180 194 206 241 350 26 31 27 23 19 17 15 11 8 2 0 360 0 359 359 1 4 6 5 1 356 349 340
122 176 172 190 183 172 172 164 161 158 153 160 161 164 166 173 177 181 175 154 93 67 53 40 31 22 17 14 8 1 359 358 357 354 355 358 3 5 6 6 3 355 349 342
54 78 61 228 200 170 159 162 160 158 161 161 165 165 172 174 172 168 155 129 93 66 50 37 28 16 8 3 357 352 352 351 349 349 352 354 357 2 3 9 7 355 348 340
221 184 145 186 186 172 166 166 167 169 163 167 174 174 176 174 169 161 150 127 102 66 42 27 16 5 356 349 344 342 343 344 347 351 353 354 352 350 1 3 3 359 355 347
146 156 159 157 169 172 174 170 170 174 176 174 173 179 180 176 167 158 146 132 115 58 27 8 355 349 344 341 341 344 342 346 352 352 354 353 352 351 348 354 2 358 353 351
137 134 113 161 172 176 176 171 175 179 180 179 180 179 179 175 165 156 150 145 98 12 347 338 337 334 340 342 349 344 344 348 351 353 353 354 355 354 352 353 353 355 356 355
165 182 188 177 169 170 176 175 173 176 177 176 174 175 174 171 165 166 173 193 277 317 326 327 326 329 337 343 345 343 342 347 350 351 353 352 352 352 352 353 355 353 352 353
146 139 155 170 169 173 177 177 182 178 178 180 179 176 175 174 176 182 195 225 267 289 299 311 321 330 337 341 343 342 346 349 350 351 350 350 351 352 352 353 354 354 354 352
134 134 156 165 174 179 184 183 183 183 179 178 178 179 178 180 187 207 244 273 283 296 311 318 323 328 332 338 338 342 348 349 350 349 347 348 348 349 352 351 351 352 353 352
163 174 189 190 183 182 181 181 181 181 180 179 180 183 187 196 220 253 268 276 282 292 305 311 314 322 329 334 334 340 344 346 346 346 346 347 347 348 349 350 349 348 349 349
202 197 188 188 188 187 183 182 180 181 182 183 185 191 200 213 231 244 253 258 265 280 293 303 313 322 326 330 333 336 341 344 343 342 344 345 344 347 347 346 346 346 345 345
215 198 191 186 185 187 185 182 183 183 185 190 199 211 230 250 269 281 283 282 287 291 298 309 315 320 322 326 329 333 338 339 339 341 342 342 343 344 343 342 342 342 342 342
209 203 196 193 191 187 185 188 191 193 197 206 218 239 261 277 282 283 286 291 296 303 307 309 313 317 323 325 327 332 334 336 337 339 341 341 341 341 341 340 340 339 339 339
215 207 203 200 195 195 197 199 202 208 217 227 244 262 270 275 281 284 284 289 292 301 306 312 315 319 322 323 326 329 331 332 335 337 337 338 338 338 339 339 339 339 338 337
214 211 209 208 207 208 212 213 216 222 230 243 257 269 277 278 279 280 280 286 293 302 307 309 312 315 318 321 323 326 328 330 332 334 335 335 335 335 335 335 336 335 335 335
213 213 212 211 214 216 219 224 233 239 247 258 267 274 279 280 278 281 284 283 293 299 301 303 308 313 317 319 321 323 325 328 331 333 333 333 333 333 333 334 334 333 332 332
224 220 219 220 223 225 224 232 237 241 249 258 268 278 285 286 283 284 286 291 295 299 301 305 309 312 315 317 319 321 323 327 329 329 329 331 332 333 333 333 332 331 331 331
228 229 230 232 231 229 235 241 245 246 252 262 273 283 286 285 279 277 281 288 293 296 299 301 306 310 313 316 318 318 321 325 327 329 329 331 331 331 331 331 330 330 330 329
226 226 227 228 229 236 245 250 250 253 260 264 271 277 283 284 279 280 286 289 291 294 299 303 307 311 312 313 314 317 321 324 326 326 327 328 329 329 330 330 330 330 330 330